Flag for U.S.A. Weather past 2 weeks in St. Petersburg, Florida, U.S.A.

Now
85 °F

Passing clouds.


Feels Like: 90 °F
Forecast: 79 / 90 °F
Wind: 10 mph from East

Location: Whitted Airport

Current Time: Aug 2, 2014 at 12:34:43 AM

Latest Report: Aug 1, 2014 at 11:53 PM


Visibility: 10 mi

Pressure: 29.97 "Hg

Humidity: 63%

Dew point: 71 °F

Location of St. PetersburgLocation

Historic Weather in St. Petersburg — Graph

°F

St. Petersburg temperature yesterday

Maximum temperature yesterday: 91 °F (at 4:53 PM)
Minimum temperature yesterday: 82 °F (at 4:53 AM)
Average temperature yesterday: 86 °F

Past Weeks' High & Low Weather Summary

 TemperatureHumidityPressure
High92 °F (Jul 21, 3:53 PM)94% (Jul 23, 3:53 AM)30.10 "Hg (Jul 23, 3:53 AM)
Low78 °F (Jul 22, 4:53 AM)48% (Aug 1, 5:53 PM)29.91 "Hg (Aug 1, 5:53 PM)
Average85 °F69%30.01 "Hg
* Reported Jul 17 10:53 PM — Aug 1 10:53 PM, St. Petersburg, Weather by CustomWeather, © 2014

Note: Actual official high and low records may vary slightly from our data, if they occured in-between our weather recording intervals... More about our weather records

Advertising

St. Petersburg weather history for previous 24 hours

 ConditionsComfort  
Time TempWeatherWind HumidityBarometerVisibility
10:53 PM
Aug 1
85 °FPassing clouds.8 mph68%29.97 "Hg10 mi
9:53 PM85 °FClear.8 mph61%29.96 "Hg10 mi
8:53 PM86 °FSunny.8 mph57%29.95 "Hg10 mi
7:53 PM87 °FSunny.10 mph53%29.94 "Hg10 mi
6:53 PM89 °FSunny.14 mph48%29.92 "Hg10 mi
5:53 PM90 °FSunny.6 mph48%29.91 "Hg10 mi
4:53 PM91 °FSunny.6 mph52%29.92 "Hg10 mi
3:53 PM90 °FSunny.7 mph52%29.95 "Hg10 mi
2:53 PM89 °FScattered clouds.7 mph52%29.96 "Hg10 mi
1:53 PM89 °FPassing clouds.5 mph50%29.97 "Hg10 mi
12:53 PM88 °FSunny.6 mph54%29.98 "Hg10 mi
11:53 AM88 °FSunny.6 mph54%29.99 "Hg10 mi
10:53 AM86 °FSunny.7 mph59%29.99 "Hg10 mi
9:53 AM85 °FSunny.6 mph68%29.98 "Hg10 mi
8:53 AM86 °FSunny.No wind57%29.97 "Hg10 mi
7:53 AM82 °FSunny.No wind67%29.96 "Hg10 mi
6:53 AM82 °FClear.No wind67%29.95 "Hg10 mi
5:53 AM82 °FClear.No wind65%29.94 "Hg10 mi
4:53 AM82 °FClear.3 mph65%29.92 "Hg10 mi
3:53 AM83 °FClear.No wind65%29.93 "Hg10 mi
2:53 AM83 °FPassing clouds.3 mph63%29.94 "Hg10 mi
1:53 AM83 °FPassing clouds.No wind63%29.96 "Hg10 mi
12:53 AM83 °FClear.3 mph61%29.97 "Hg10 mi
Weather by CustomWeather, © 2014

See weather overviewHow to use our weather pages